Location: Unspecified
(49.2170°N, 0.0000°E)
Time: 16:27:05
(UTC+00:00)

Transit 2A - Pass Details

Date: 25 June 2019
Orbit: 594 x 965 km, 66.7° (Epoch: 17 July)

Event Time Altitude Azimuth Distance (km) Brightness Sun altitude
Exits shadow 22:14:19 17° 138° (SE) 2,215 7.8 -13.5°
Maximum altitude 22:16:55 22° 107° (ESE) 1,956 7.7 -13.7°
Drops below altitude 10° 22:21:34 10° 59° (ENE) 2,669 8.9 -14.0°
Sets 22:24:37 0° 45° (NE) 3,581 9.8 -14.2°
